Time,TemperatureF,DewpointF,PressureIn,WindDirection,WindDirectionDegrees,WindSpeedMPH,WindSpeedGustMPH,Humidity,HourlyPrecipIn,Conditions,Clouds,dailyrainin,SoftwareType,DateUTC
2013-02-19 00:00:00,39.7,35.6,29.76,West,270,0.0,1.0,85,0.00,CLR,,0.00,WeatherDisplay:10.37,2013-02-18 23:00:00,
2013-02-19 00:05:00,39.7,35.6,29.76,West,270,0.0,1.0,85,0.00,CLR,,0.00,WeatherDisplay:10.37,2013-02-18 23:05:00,
2013-02-19 00:10:00,39.7,35.6,29.75,WNW,282,1.0,2.0,85,0.00,CLR,,0.00,WeatherDisplay:10.37,2013-02-18 23:10:00,
2013-02-19 00:15:00,39.7,35.6,29.75,NW,308,1.0,2.0,85,0.00,CLR,,0.00,WeatherDisplay:10.37,2013-02-18 23:15:00,
2013-02-19 00:20:00,39.7,35.6,29.75,NW,315,1.0,2.0,85,0.00,CLR,,0.00,WeatherDisplay:10.37,2013-02-18 23:20:00,
2013-02-19 00:25:00,39.6,35.4,29.75,WNW,297,1.0,3.0,85,0.00,CLR,,0.00,WeatherDisplay:10.37,2013-02-18 23:25:00,
2013-02-19 00:30:00,39.6,35.4,29.75,West,274,1.0,3.0,85,0.00,CLR,,0.00,WeatherDisplay:10.37,2013-02-18 23:30:00,
2013-02-19 00:35:00,39.6,35.4,29.75,West,270,1.0,3.0,85,0.00,CLR,,0.00,WeatherDisplay:10.37,2013-02-18 23:35:00,
2013-02-19 00:40:00,39.6,35.4,29.75,West,270,0.0,3.0,85,0.00,CLR,,0.00,WeatherDisplay:10.37,2013-02-18 23:40:00,
2013-02-19 00:45:00,39.6,35.4,29.75,West,270,0.0,1.0,85,0.00,CLR,,0.00,WeatherDisplay:10.37,2013-02-18 23:45:00,
2013-02-19 00:50:00,39.6,35.4,29.75,West,270,0.0,1.0,85,0.00,CLR,,0.00,WeatherDisplay:10.37,2013-02-18 23:50:00,
2013-02-19 00:55:00,39.6,35.4,29.75,WNW,288,0.0,1.0,85,0.00,CLR,,0.00,WeatherDisplay:10.37,2013-02-18 23:55:00,
2013-02-19 01:00:00,39.6,35.4,29.75,NW,311,0.0,0.0,85,0.00,CLR,,0.00,WeatherDisplay:10.37,2013-02-19 00:00:00,
2013-02-19 01:05:00,39.6,35.4,29.75,NW,315,0.0,0.0,85,0.00,CLR,,0.00,WeatherDisplay:10.37,2013-02-19 00:05:00,
2013-02-19 01:10:00,39.6,35.4,29.75,NNW,333,0.0,2.0,85,0.00,CLR,,0.00,WeatherDisplay:10.37,2013-02-19 00:10:00,
2013-02-19 01:15:00,39.6,35.4,29.75,North,356,0.0,2.0,85,0.00,CLR,,0.00,WeatherDisplay:10.37,2013-02-19 00:15:00,
2013-02-19 01:20:00,39.6,35.4,29.75,North,0,0.0,2.0,85,0.00,CLR,,0.00,WeatherDisplay:10.37,2013-02-19 00:20:00,
2013-02-19 01:25:00,39.7,35.9,29.75,NW,318,0.0,2.0,86,0.00,CLR,,0.00,WeatherDisplay:10.37,2013-02-19 00:25:00,
2013-02-19 01:30:00,39.7,35.9,29.75,SW,230,0.0,1.0,86,0.00,CLR,,0.00,WeatherDisplay:10.37,2013-02-19 00:30:00,
2013-02-19 01:35:00,39.7,35.9,29.75,SW,225,0.0,1.0,86,0.00,CLR,,0.00,WeatherDisplay:10.37,2013-02-19 00:35:00,
2013-02-19 01:40:00,40.3,36.4,29.75,WSW,243,0.0,1.0,86,0.00,CLR,,0.00,WeatherDisplay:10.37,2013-02-19 00:40:00,
2013-02-19 01:45:00,40.3,36.4,29.75,West,266,0.0,1.0,86,0.00,CLR,,0.00,WeatherDisplay:10.37,2013-02-19 00:45:00,
2013-02-19 01:50:00,40.3,36.4,29.75,West,270,0.0,1.0,86,0.00,CLR,,0.00,WeatherDisplay:10.37,2013-02-19 00:50:00,
2013-02-19 01:55:00,41.5,37.7,29.76,West,279,0.0,1.0,86,0.00,CLR,,0.00,WeatherDisplay:10.37,2013-02-19 00:55:00,
2013-02-19 02:00:00,41.5,37.7,29.76,WNW,290,0.0,1.0,86,0.00,CLR,,0.00,WeatherDisplay:10.37,2013-02-19 01:00:00,
2013-02-19 02:05:00,41.5,37.7,29.76,WNW,292,0.0,1.0,86,0.00,CLR,,0.00,WeatherDisplay:10.37,2013-02-19 01:05:00,
2013-02-19 02:10:00,42.3,38.1,29.77,WNW,292,1.0,2.0,85,0.00,CLR,,0.00,WeatherDisplay:10.37,2013-02-19 01:10:00,
2013-02-19 02:15:00,42.3,38.1,29.77,WNW,292,1.0,2.0,85,0.00,CLR,,0.00,WeatherDisplay:10.37,2013-02-19 01:15:00,
2013-02-19 02:20:00,42.3,38.1,29.77,WNW,292,1.0,2.0,85,0.00,CLR,,0.00,WeatherDisplay:10.37,2013-02-19 01:20:00,
2013-02-19 02:25:00,43.2,39.0,29.77,NW,306,1.0,3.0,85,0.00,CLR,,0.00,WeatherDisplay:10.37,2013-02-19 01:25:00,
2013-02-19 02:30:00,43.2,39.0,29.77,NW,314,1.0,3.0,85,0.00,CLR,,0.00,WeatherDisplay:10.37,2013-02-19 01:30:00,
2013-02-19 02:35:00,43.2,39.0,29.77,NW,315,1.0,3.0,85,0.00,CLR,,0.00,WeatherDisplay:10.37,2013-02-19 01:35:00,
2013-02-19 02:40:00,43.9,39.4,29.78,WNW,287,0.0,3.0,84,0.00,CLR,,0.00,WeatherDisplay:10.37,2013-02-19 01:40:00,
2013-02-19 02:45:00,43.9,39.4,29.78,South,187,0.0,1.0,84,0.00,CLR,,0.00,WeatherDisplay:10.37,2013-02-19 01:45:00,
2013-02-19 02:50:00,43.9,39.4,29.78,South,180,0.0,1.0,84,0.00,CLR,,0.00,WeatherDisplay:10.37,2013-02-19 01:50:00,
2013-02-19 02:55:00,45.1,40.3,29.78,South,180,0.0,1.0,83,0.00,CLR,,0.00,WeatherDisplay:10.37,2013-02-19 01:55:00,
2013-02-19 03:00:00,45.1,40.3,29.78,North,0,0.0,0.0,83,0.00,CLR,,0.00,WeatherDisplay:10.37,2013-02-19 02:00:00,
2013-02-19 03:05:00,45.1,40.3,29.78,North,0,0.0,0.0,83,0.00,CLR,,0.00,WeatherDisplay:10.37,2013-02-19 02:05:00,
2013-02-19 03:10:00,46.2,41.0,29.78,NNW,337,1.0,2.0,82,0.00,CLR,,0.00,WeatherDisplay:10.37,2013-02-19 02:10:00,
2013-02-19 03:15:00,46.2,41.0,29.78,West,259,1.0,2.0,82,0.00,CLR,,0.00,WeatherDisplay:10.37,2013-02-19 02:15:00,
2013-02-19 03:20:00,46.2,41.0,29.78,WSW,248,1.0,2.0,82,0.00,CLR,,0.00,WeatherDisplay:10.37,2013-02-19 02:20:00,
2013-02-19 03:25:00,46.8,40.9,29.78,NW,310,0.0,2.0,80,0.00,CLR,,0.00,WeatherDisplay:10.37,2013-02-19 02:25:00,
2013-02-19 03:30:00,46.8,40.9,29.78,North,356,0.0,2.0,80,0.00,CLR,,0.00,WeatherDisplay:10.37,2013-02-19 02:30:00,
2013-02-19 03:35:00,46.8,40.9,29.78,North,0,0.0,2.0,80,0.00,CLR,,0.00,WeatherDisplay:10.37,2013-02-19 02:35:00,
2013-02-19 03:40:00,47.7,41.5,29.78,NNW,348,1.0,2.0,79,0.00,CLR,,0.00,WeatherDisplay:10.37,2013-02-19 02:40:00,
2013-02-19 03:45:00,47.7,41.5,29.78,NW,322,1.0,2.0,79,0.00,CLR,,0.00,WeatherDisplay:10.37,2013-02-19 02:45:00,
2013-02-19 03:50:00,47.7,41.5,29.78,NW,315,1.0,2.0,79,0.00,CLR,,0.00,WeatherDisplay:10.37,2013-02-19 02:50:00,
2013-02-19 07:35:00,54.9,41.2,29.73,NW,308,1.0,2.0,60,0.00,CLR,,0.00,WeatherDisplay:10.37,2013-02-19 06:35:00,
2013-02-19 07:40:00,54.9,41.2,29.73,WNW,298,1.0,2.0,60,0.00,CLR,,0.00,WeatherDisplay:10.37,2013-02-19 06:40:00,
2013-02-19 07:45:00,54.9,41.2,29.73,West,270,1.0,2.0,60,0.00,CLR,,0.00,WeatherDisplay:10.37,2013-02-19 06:45:00,
2013-02-19 07:50:00,54.9,40.8,29.73,North,352,3.0,7.0,59,0.00,CLR,,0.00,WeatherDisplay:10.37,2013-02-19 06:50:00,
2013-02-19 07:55:00,54.9,40.8,29.73,NNE,19,3.0,7.0,59,0.00,CLR,,0.00,WeatherDisplay:10.37,2013-02-19 06:55:00,
2013-02-19 08:00:00,54.9,40.8,29.73,NNE,22,3.0,7.0,59,0.00,CLR,,0.00,WeatherDisplay:10.37,2013-02-19 07:00:00,
2013-02-19 08:05:00,54.7,40.2,29.73,NNE,12,1.0,7.0,58,0.00,CLR,,0.00,WeatherDisplay:10.37,2013-02-19 07:05:00,
2013-02-19 08:10:00,54.7,40.2,29.73,NNW,336,1.0,3.0,58,0.00,CLR,,0.00,WeatherDisplay:10.37,2013-02-19 07:10:00,
2013-02-19 08:15:00,54.7,40.2,29.73,NW,315,1.0,3.0,58,0.00,CLR,,0.00,WeatherDisplay:10.37,2013-02-19 07:15:00,
2013-02-19 08:20:00,55.4,40.9,29.73,NW,305,0.0,3.0,58,0.00,CLR,,0.00,WeatherDisplay:10.37,2013-02-19 07:20:00,
2013-02-19 08:25:00,55.4,40.9,29.73,West,281,0.0,1.0,58,0.00,CLR,,0.00,WeatherDisplay:10.37,2013-02-19 07:25:00,
2013-02-19 08:30:00,55.4,40.9,29.73,West,270,0.0,1.0,58,0.00,CLR,,0.00,WeatherDisplay:10.37,2013-02-19 07:30:00,
2013-02-19 08:35:00,55.2,39.8,29.72,WNW,300,1.0,2.0,56,0.00,CLR,,0.00,WeatherDisplay:10.37,2013-02-19 07:35:00,
2013-02-19 08:40:00,55.2,39.8,29.72,North,350,1.0,2.0,56,0.00,CLR,,0.00,WeatherDisplay:10.37,2013-02-19 07:40:00,
2013-02-19 08:45:00,55.2,39.8,29.72,North,0,1.0,2.0,56,0.00,CLR,,0.00,WeatherDisplay:10.37,2013-02-19 07:45:00,
2013-02-19 08:50:00,55.0,39.6,29.72,North,0,0.0,2.0,56,0.00,CLR,,0.00,WeatherDisplay:10.37,2013-02-19 07:50:00,
2013-02-19 08:55:00,55.0,39.6,29.72,South,180,0.0,1.0,56,0.00,CLR,,0.00,WeatherDisplay:10.37,2013-02-19 07:55:00,
2013-02-19 09:00:00,55.0,39.6,29.72,South,180,0.0,1.0,56,0.00,CLR,,0.00,WeatherDisplay:10.37,2013-02-19 08:00:00,
2013-02-19 09:05:00,55.6,39.7,29.73,SSE,156,0.0,2.0,55,0.00,CLR,,0.00,WeatherDisplay:10.37,2013-02-19 08:05:00,
2013-02-19 09:10:00,55.6,39.7,29.73,ENE,57,0.0,2.0,55,0.00,CLR,,0.00,WeatherDisplay:10.37,2013-02-19 08:10:00,
2013-02-19 09:15:00,55.6,39.7,29.73,NE,45,0.0,2.0,55,0.00,CLR,,0.00,WeatherDisplay:10.37,2013-02-19 08:15:00,
2013-02-19 09:20:00,55.4,40.0,29.72,NNE,15,1.0,4.0,56,0.00,CLR,,0.00,WeatherDisplay:10.37,2013-02-19 08:20:00,
2013-02-19 09:25:00,55.4,40.0,29.72,NW,325,1.0,4.0,56,0.00,CLR,,0.00,WeatherDisplay:10.37,2013-02-19 08:25:00,
2013-02-19 09:30:00,55.4,40.0,29.72,NW,315,1.0,4.0,56,0.00,CLR,,0.00,WeatherDisplay:10.37,2013-02-19 08:30:00,
2013-02-19 09:35:00,55.0,39.6,29.72,WNW,294,3.0,6.0,56,0.00,CLR,,0.00,WeatherDisplay:10.37,2013-02-19 08:35:00,
2013-02-19 09:40:00,55.0,39.6,29.72,West,275,3.0,6.0,56,0.00,CLR,,0.00,WeatherDisplay:10.37,2013-02-19 08:40:00,
2013-02-19 09:45:00,55.0,39.6,29.72,West,270,3.0,6.0,56,0.00,CLR,,0.00,WeatherDisplay:10.37,2013-02-19 08:45:00,
2013-02-19 09:50:00,54.3,39.4,29.72,WNW,290,6.0,10.0,57,0.00,CLR,,0.00,WeatherDisplay:10.37,2013-02-19 08:50:00,
2013-02-19 09:53:00,48.4,41.5,29.79,East,90,2.3,2.3,77,0.00,CLR,,0.00,WeatherDisplay:10.37,2013-02-19 08:53:00,
2013-02-19 09:55:00,54.3,39.4,29.72,NW,310,6.0,10.0,57,0.00,CLR,,0.00,WeatherDisplay:10.37,2013-02-19 08:55:00,
2013-02-19 09:58:00,48.7,41.5,29.79,East,90,2.3,0.0,76,0.00,CLR,,0.00,WeatherDisplay:10.37,2013-02-19 08:58:00,
2013-02-19 10:00:00,54.3,39.4,29.72,NW,315,6.0,10.0,57,0.00,CLR,,0.00,WeatherDisplay:10.37,2013-02-19 09:00:00,
2013-02-19 10:04:00,49.1,41.5,29.79,WNW,292,2.3,0.0,75,0.00,CLR,,0.00,WeatherDisplay:10.37,2013-02-19 09:04:00,
2013-02-19 10:05:00,53.4,38.6,29.72,NW,315,5.0,10.0,57,0.00,CLR,,0.00,WeatherDisplay:10.37,2013-02-19 09:05:00,
2013-02-19 10:09:00,49.3,41.7,29.79,ESE,112,1.6,1.6,75,0.00,CLR,,0.00,WeatherDisplay:10.37,2013-02-19 09:09:00,
2013-02-19 10:10:00,53.4,38.6,29.72,NW,315,5.0,9.0,57,0.00,CLR,,0.00,WeatherDisplay:10.37,2013-02-19 09:10:00,
2013-02-19 10:14:00,49.3,41.3,29.79,NW,315,3.5,3.5,74,0.00,CLR,,0.00,WeatherDisplay:10.37,2013-02-19 09:14:00,
2013-02-19 10:15:00,53.4,38.6,29.72,NW,315,5.0,9.0,57,0.00,CLR,,0.00,WeatherDisplay:10.37,2013-02-19 09:15:00,
2013-02-19 10:19:00,49.6,41.7,29.79,North,0,3.5,3.5,74,0.00,CLR,,0.00,WeatherDisplay:10.37,2013-02-19 09:19:00,
2013-02-19 10:20:00,53.1,38.2,29.72,WNW,292,6.0,9.0,57,0.00,CLR,,0.00,WeatherDisplay:10.37,2013-02-19 09:20:00,
2013-02-19 10:24:00,49.6,41.3,29.79,NE,45,2.3,0.0,73,0.00,CLR,,0.00,WeatherDisplay:10.37,2013-02-19 09:24:00,
2013-02-19 10:25:00,53.1,38.2,29.72,WSW,257,6.0,9.0,57,0.00,CLR,,0.00,WeatherDisplay:10.37,2013-02-19 09:25:00,
2013-02-19 10:29:00,49.6,41.0,29.79,West,270,2.3,0.0,72,0.00,CLR,,0.00,WeatherDisplay:10.37,2013-02-19 09:29:00,
2013-02-19 10:30:00,53.1,38.2,29.72,WSW,248,6.0,9.0,57,0.00,CLR,,0.00,WeatherDisplay:10.37,2013-02-19 09:30:00,
2013-02-19 10:34:00,50.0,41.3,29.79,West,270,3.5,3.5,72,0.00,CLR,,0.00,WeatherDisplay:10.37,2013-02-19 09:34:00,
2013-02-19 10:35:00,52.3,37.5,29.72,WSW,253,5.0,9.0,57,0.00,CLR,,0.00,WeatherDisplay:10.37,2013-02-19 09:35:00,
2013-02-19 10:39:00,50.2,41.1,29.78,West,270,3.5,3.5,71,0.00,CLR,,0.00,WeatherDisplay:10.37,2013-02-19 09:39:00,
2013-02-19 10:40:00,52.3,37.5,29.72,West,264,5.0,7.0,57,0.00,CLR,,0.00,WeatherDisplay:10.37,2013-02-19 09:40:00,
2013-02-19 10:44:00,50.4,41.3,29.79,WNW,292,3.5,3.5,71,0.00,CLR,,0.00,WeatherDisplay:10.37,2013-02-19 09:44:00,
2013-02-19 10:45:00,52.3,37.5,29.72,West,270,5.0,7.0,57,0.00,CLR,,0.00,WeatherDisplay:10.37,2013-02-19 09:45:00,
2013-02-19 10:49:00,50.4,40.9,29.78,West,270,3.5,3.5,70,0.00,CLR,,0.00,WeatherDisplay:10.37,2013-02-19 09:49:00,
2013-02-19 10:50:00,51.8,37.5,29.72,West,270,5.0,7.0,58,0.00,CLR,,0.00,WeatherDisplay:10.37,2013-02-19 09:50:00,
2013-02-19 10:54:00,50.5,40.7,29.78,North,0,3.5,3.5,69,0.00,CLR,,0.00,WeatherDisplay:10.37,2013-02-19 09:54:00,
2013-02-19 10:55:00,51.8,37.5,29.72,West,270,5.0,6.0,58,0.00,CLR,,0.00,WeatherDisplay:10.37,2013-02-19 09:55:00,
2013-02-19 10:59:00,50.9,41.1,29.78,NW,315,1.1,0.0,69,0.00,CLR,,0.00,WeatherDisplay:10.37,2013-02-19 09:59:00,
2013-02-19 11:00:00,51.8,37.5,29.72,West,270,5.0,6.0,58,0.00,CLR,,0.00,WeatherDisplay:10.37,2013-02-19 10:00:00,
2013-02-19 11:04:00,51.1,41.3,29.78,NW,315,3.5,3.5,69,0.00,CLR,,0.00,WeatherDisplay:10.37,2013-02-19 10:04:00,
2013-02-19 11:05:00,50.9,37.5,29.72,WNW,282,3.0,9.0,60,0.00,CLR,,0.00,WeatherDisplay:10.37,2013-02-19 10:05:00,
2013-02-19 11:09:00,51.6,41.4,29.78,North,0,3.5,0.0,68,0.00,CLR,,0.00,WeatherDisplay:10.37,2013-02-19 10:09:00,
2013-02-19 11:10:00,50.9,37.5,29.72,NW,305,3.0,9.0,60,0.00,CLR,,0.00,WeatherDisplay:10.37,2013-02-19 10:10:00,
2013-02-19 11:14:00,52.0,41.4,29.78,North,0,5.4,5.4,67,0.00,CLR,,0.00,WeatherDisplay:10.37,2013-02-19 10:14:00,
2013-02-19 11:15:00,50.9,37.5,29.72,NW,315,3.0,9.0,60,0.00,CLR,,0.00,WeatherDisplay:10.37,2013-02-19 10:15:00,
2013-02-19 11:19:00,52.0,41.4,29.78,ENE,68,5.8,5.8,67,0.00,CLR,,0.00,WeatherDisplay:10.37,2013-02-19 10:19:00,
2013-02-19 11:20:00,50.4,37.4,29.73,NW,306,2.0,9.0,61,0.00,CLR,,0.00,WeatherDisplay:10.37,2013-02-19 10:20:00,
2013-02-19 11:24:00,52.2,41.1,29.78,SW,225,3.5,0.0,66,0.00,CLR,,0.00,WeatherDisplay:10.37,2013-02-19 10:24:00,
2013-02-19 11:25:00,50.4,37.4,29.73,WNW,283,2.0,4.0,61,0.00,CLR,,0.00,WeatherDisplay:10.37,2013-02-19 10:25:00,
2013-02-19 11:29:00,52.2,41.1,29.78,North,0,5.8,5.8,66,0.00,CLR,,0.00,WeatherDisplay:10.37,2013-02-19 10:29:00,
2013-02-19 11:30:00,50.4,37.4,29.73,West,270,2.0,4.0,61,0.00,CLR,,0.00,WeatherDisplay:10.37,2013-02-19 10:30:00,
2013-02-19 11:34:00,52.2,41.1,29.78,SSE,158,3.5,0.0,66,0.00,CLR,,0.00,WeatherDisplay:10.37,2013-02-19 10:34:00,
2013-02-19 11:35:00,50.0,37.9,29.73,West,280,1.0,4.0,63,0.00,CLR,,0.00,WeatherDisplay:10.37,2013-02-19 10:35:00,
2013-02-19 11:39:00,52.3,40.9,29.77,NE,45,3.5,3.5,65,0.00,CLR,,0.00,WeatherDisplay:10.37,2013-02-19 10:39:00,
2013-02-19 11:40:00,50.0,37.9,29.73,NW,304,1.0,3.0,63,0.00,CLR,,0.00,WeatherDisplay:10.37,2013-02-19 10:40:00,
2013-02-19 11:44:00,52.5,41.1,29.78,East,90,3.5,3.5,65,0.00,CLR,,0.00,WeatherDisplay:10.37,2013-02-19 10:44:00,
2013-02-19 11:45:00,50.0,37.9,29.73,NW,315,1.0,3.0,63,0.00,CLR,,0.00,WeatherDisplay:10.37,2013-02-19 10:45:00,
2013-02-19 11:49:00,52.7,40.9,29.78,South,180,3.5,3.5,64,0.00,CLR,,0.00,WeatherDisplay:10.37,2013-02-19 10:49:00,
2013-02-19 11:50:00,49.5,37.8,29.73,WNW,302,1.0,5.0,64,0.00,CLR,,0.00,WeatherDisplay:10.37,2013-02-19 10:50:00,
2013-02-19 11:54:00,52.7,40.9,29.77,NE,45,2.3,2.3,64,0.00,CLR,,0.00,WeatherDisplay:10.37,2013-02-19 10:54:00,
2013-02-19 11:55:00,49.5,37.8,29.73,West,279,1.0,5.0,64,0.00,CLR,,0.00,WeatherDisplay:10.37,2013-02-19 10:55:00,
2013-02-19 11:59:00,52.9,41.4,29.77,NW,315,5.8,5.8,65,0.00,CLR,,0.00,WeatherDisplay:10.37,2013-02-19 10:59:00,
2013-02-19 12:00:00,49.5,37.8,29.73,West,270,1.0,5.0,64,0.00,CLR,,0.00,WeatherDisplay:10.37,2013-02-19 11:00:00,
2013-02-19 12:04:00,52.9,41.0,29.77,West,270,5.8,5.8,64,0.00,CLR,,0.00,WeatherDisplay:10.37,2013-02-19 11:04:00,
2013-02-19 12:05:00,49.3,38.0,29.73,West,270,2.0,5.0,65,0.00,CLR,,0.00,WeatherDisplay:10.37,2013-02-19 11:05:00,
2013-02-19 12:09:00,52.9,41.0,29.77,West,270,3.5,3.5,64,0.00,CLR,,0.00,WeatherDisplay:10.37,2013-02-19 11:09:00,
2013-02-19 12:10:00,49.3,38.0,29.73,West,270,2.0,4.0,65,0.00,CLR,,0.00,WeatherDisplay:10.37,2013-02-19 11:10:00,
2013-02-19 12:14:00,53.1,41.2,29.77,NW,315,3.5,3.5,64,0.00,CLR,,0.00,WeatherDisplay:10.37,2013-02-19 11:14:00,
2013-02-19 12:15:00,49.3,38.0,29.73,West,270,2.0,4.0,65,0.00,CLR,,0.00,WeatherDisplay:10.37,2013-02-19 11:15:00,
2013-02-19 12:19:00,52.9,40.6,29.77,NW,315,5.8,5.8,63,0.00,CLR,,0.00,WeatherDisplay:10.37,2013-02-19 11:19:00,
2013-02-19 12:20:00,48.9,38.4,29.73,West,265,1.0,4.0,67,0.00,CLR,,0.00,WeatherDisplay:10.37,2013-02-19 11:20:00,
2013-02-19 12:24:00,52.5,39.9,29.76,North,0,4.6,4.6,62,0.00,CLR,,0.00,WeatherDisplay:10.37,2013-02-19 11:24:00,
2013-02-19 12:25:00,48.9,38.4,29.73,WSW,245,1.0,2.0,67,0.00,CLR,,0.00,WeatherDisplay:10.37,2013-02-19 11:25:00,
2013-02-19 12:29:00,52.7,40.0,29.77,East,90,5.8,5.8,62,0.00,CLR,,0.00,WeatherDisplay:10.37,2013-02-19 11:29:00,
2013-02-19 12:30:00,48.9,38.4,29.73,SW,225,1.0,2.0,67,0.00,CLR,,0.00,WeatherDisplay:10.37,2013-02-19 11:30:00,
2013-02-19 12:34:00,53.1,40.4,29.76,West,270,3.5,3.5,62,0.00,CLR,,0.00,WeatherDisplay:10.37,2013-02-19 11:34:00,
2013-02-19 12:35:00,48.7,38.3,29.73,SW,225,0.0,2.0,67,0.00,CLR,,0.00,WeatherDisplay:10.37,2013-02-19 11:35:00,
2013-02-19 12:39:00,53.2,40.5,29.76,North,0,5.8,5.8,62,0.00,CLR,,0.00,WeatherDisplay:10.37,2013-02-19 11:39:00,
2013-02-19 12:40:00,48.7,38.3,29.73,SW,225,0.0,2.0,67,0.00,CLR,,0.00,WeatherDisplay:10.37,2013-02-19 11:40:00,
2013-02-19 12:44:00,53.2,40.1,29.75,West,270,8.1,8.1,61,0.00,CLR,,0.00,WeatherDisplay:10.37,2013-02-19 11:44:00,
2013-02-19 12:45:00,48.7,38.3,29.73,SW,225,0.0,2.0,67,0.00,CLR,,0.00,WeatherDisplay:10.37,2013-02-19 11:45:00,
2013-02-19 12:49:00,53.2,40.1,29.76,NW,315,5.8,5.8,61,0.00,CLR,,0.00,WeatherDisplay:10.37,2013-02-19 11:49:00,
2013-02-19 12:50:00,48.6,38.5,29.74,SW,234,1.0,2.0,68,0.00,CLR,,0.00,WeatherDisplay:10.37,2013-02-19 11:50:00,
2013-02-19 12:54:00,53.4,40.3,29.75,West,270,5.8,5.8,61,0.00,CLR,,0.00,WeatherDisplay:10.37,2013-02-19 11:54:00,
2013-02-19 12:55:00,48.6,38.5,29.74,WSW,257,1.0,2.0,68,0.00,CLR,,0.00,WeatherDisplay:10.37,2013-02-19 11:55:00,
2013-02-19 12:59:00,53.6,40.5,29.75,North,0,4.6,4.6,61,0.00,CLR,,0.00,WeatherDisplay:10.37,2013-02-19 11:59:00,
2013-02-19 13:00:00,48.6,38.5,29.74,West,270,1.0,2.0,68,0.00,CLR,,0.00,WeatherDisplay:10.37,2013-02-19 12:00:00,
2013-02-19 13:04:00,53.6,40.5,29.75,North,0,3.5,3.5,61,0.00,CLR,,0.00,WeatherDisplay:10.37,2013-02-19 12:04:00,
2013-02-19 13:05:00,48.2,38.5,29.73,WNW,289,0.0,2.0,69,0.00,CLR,,0.00,WeatherDisplay:10.37,2013-02-19 12:05:00,
2013-02-19 13:09:00,54.3,41.1,29.75,North,0,6.9,6.9,61,0.00,CLR,,0.00,WeatherDisplay:10.37,2013-02-19 12:09:00,
2013-02-19 13:10:00,48.2,38.5,29.73,NW,310,0.0,2.0,69,0.00,CLR,,0.00,WeatherDisplay:10.37,2013-02-19 12:10:00,
2013-02-19 13:14:00,54.5,41.3,29.74,East,90,5.8,5.8,61,0.00,CLR,,0.00,WeatherDisplay:10.37,2013-02-19 12:14:00,
2013-02-19 13:15:00,48.2,38.5,29.73,NW,315,0.0,2.0,69,0.00,CLR,,0.00,WeatherDisplay:10.37,2013-02-19 12:15:00,
2013-02-19 13:20:00,54.3,40.7,29.74,NNE,17,0.0,5.0,60,0.00,CLR,,0.00,WeatherDisplay:10.37,2013-02-19 12:20:00,
2013-02-19 13:24:00,54.1,40.6,29.74,NW,315,5.8,5.8,60,0.00,CLR,,0.00,WeatherDisplay:10.37,2013-02-19 12:24:00,
2013-02-19 13:25:00,48.0,38.7,29.74,West,279,0.0,2.0,70,0.00,CLR,,0.00,WeatherDisplay:10.37,2013-02-19 12:25:00,
2013-02-19 13:30:00,54.0,40.4,29.74,WNW,292,3.5,3.5,60,0.00,CLR,,0.00,WeatherDisplay:10.37,2013-02-19 12:30:00,
2013-02-19 13:35:00,47.5,38.2,29.74,West,270,0.0,2.0,70,0.00,CLR,,0.00,WeatherDisplay:10.37,2013-02-19 12:35:00,
2013-02-19 13:40:00,47.5,38.2,29.74,West,270,0.0,0.0,70,0.00,CLR,,0.00,WeatherDisplay:10.37,2013-02-19 12:40:00,
2013-02-19 13:45:00,47.5,38.2,29.74,West,270,0.0,0.0,70,0.00,CLR,,0.00,WeatherDisplay:10.37,2013-02-19 12:45:00,
2013-02-19 13:50:00,47.1,38.2,29.74,West,270,0.0,2.0,71,0.00,CLR,,0.00,WeatherDisplay:10.37,2013-02-19 12:50:00,
2013-02-19 13:55:00,47.1,38.2,29.74,East,90,0.0,2.0,71,0.00,CLR,,0.00,WeatherDisplay:10.37,2013-02-19 12:55:00,
2013-02-19 14:00:00,47.1,38.2,29.74,East,90,0.0,2.0,71,0.00,CLR,,0.00,WeatherDisplay:10.37,2013-02-19 13:00:00,
2013-02-19 14:05:00,46.6,38.0,29.74,East,90,0.0,2.0,72,0.00,CLR,,0.00,WeatherDisplay:10.37,2013-02-19 13:05:00,
2013-02-19 14:10:00,46.6,38.0,29.74,East,90,0.0,1.0,72,0.00,CLR,,0.00,WeatherDisplay:10.37,2013-02-19 13:10:00,
2013-02-19 14:15:00,46.6,38.0,29.74,East,90,0.0,1.0,72,0.00,CLR,,0.00,WeatherDisplay:10.37,2013-02-19 13:15:00,
2013-02-19 14:20:00,46.2,37.7,29.75,East,90,0.0,2.0,72,0.00,CLR,,0.00,WeatherDisplay:10.37,2013-02-19 13:20:00,
2013-02-19 14:25:00,46.2,37.7,29.75,East,90,0.0,2.0,72,0.00,CLR,,0.00,WeatherDisplay:10.37,2013-02-19 13:25:00,
2013-02-19 14:30:00,46.2,37.7,29.75,East,90,0.0,2.0,72,0.00,CLR,,0.00,WeatherDisplay:10.37,2013-02-19 13:30:00,
2013-02-19 14:35:00,45.7,37.5,29.75,East,90,0.0,2.0,73,0.00,CLR,,0.00,WeatherDisplay:10.37,2013-02-19 13:35:00,
2013-02-19 14:40:00,45.7,37.5,29.75,East,90,0.0,0.0,73,0.00,CLR,,0.00,WeatherDisplay:10.37,2013-02-19 13:40:00,
2013-02-19 14:45:00,45.7,37.5,29.75,East,90,0.0,0.0,73,0.00,CLR,,0.00,WeatherDisplay:10.37,2013-02-19 13:45:00,
2013-02-19 14:50:00,45.3,37.2,29.76,ESE,113,0.0,1.0,73,0.00,CLR,,0.00,WeatherDisplay:10.37,2013-02-19 13:50:00,
2013-02-19 14:55:00,45.3,37.2,29.76,SSE,166,0.0,1.0,73,0.00,CLR,,0.00,WeatherDisplay:10.37,2013-02-19 13:55:00,
2013-02-19 15:00:00,45.3,37.2,29.76,South,180,0.0,1.0,73,0.00,CLR,,0.00,WeatherDisplay:10.37,2013-02-19 14:00:00,
2013-02-19 15:05:00,45.0,37.2,29.76,SSE,167,0.0,1.0,74,0.00,CLR,,0.00,WeatherDisplay:10.37,2013-02-19 14:05:00,
2013-02-19 15:10:00,45.0,37.2,29.76,SE,144,0.0,0.0,74,0.00,CLR,,0.00,WeatherDisplay:10.37,2013-02-19 14:10:00,
2013-02-19 15:15:00,45.0,37.2,29.76,SE,135,0.0,0.0,74,0.00,CLR,,0.00,WeatherDisplay:10.37,2013-02-19 14:15:00,
2013-02-19 15:20:00,44.6,37.2,29.77,SSE,148,0.0,1.0,75,0.00,CLR,,0.00,WeatherDisplay:10.37,2013-02-19 14:20:00,
2013-02-19 15:25:00,44.6,37.2,29.77,South,171,0.0,1.0,75,0.00,CLR,,0.00,WeatherDisplay:10.37,2013-02-19 14:25:00,
2013-02-19 15:30:00,44.6,37.2,29.77,South,180,0.0,1.0,75,0.00,CLR,,0.00,WeatherDisplay:10.37,2013-02-19 14:30:00,
2013-02-19 15:35:00,44.2,36.8,29.77,South,180,0.0,1.0,75,0.00,CLR,,0.00,WeatherDisplay:10.37,2013-02-19 14:35:00,
2013-02-19 15:40:00,44.2,36.8,29.77,South,180,0.0,0.0,75,0.00,CLR,,0.00,WeatherDisplay:10.37,2013-02-19 14:40:00,
2013-02-19 15:45:00,44.2,36.8,29.77,South,180,0.0,0.0,75,0.00,CLR,,0.00,WeatherDisplay:10.37,2013-02-19 14:45:00,
2013-02-19 15:50:00,44.2,37.2,29.77,SSE,157,0.0,1.0,76,0.00,CLR,,0.00,WeatherDisplay:10.37,2013-02-19 14:50:00,
2013-02-19 15:55:00,44.2,37.2,29.77,ESE,104,0.0,1.0,76,0.00,CLR,,0.00,WeatherDisplay:10.37,2013-02-19 14:55:00,
2013-02-19 16:00:00,44.2,37.2,29.77,East,90,0.0,1.0,76,0.00,CLR,,0.00,WeatherDisplay:10.37,2013-02-19 15:00:00,
2013-02-19 16:05:00,44.1,37.0,29.77,East,90,0.0,2.0,76,0.00,CLR,,0.00,WeatherDisplay:10.37,2013-02-19 15:05:00,
2013-02-19 16:10:00,44.1,37.0,29.77,East,90,0.0,2.0,76,0.00,CLR,,0.00,WeatherDisplay:10.37,2013-02-19 15:10:00,
2013-02-19 16:15:00,44.1,37.0,29.77,East,90,0.0,2.0,76,0.00,CLR,,0.00,WeatherDisplay:10.37,2013-02-19 15:15:00,
2013-02-19 16:20:00,43.9,36.8,29.77,East,90,0.0,2.0,76,0.00,CLR,,0.00,WeatherDisplay:10.37,2013-02-19 15:20:00,
2013-02-19 16:25:00,43.9,36.8,29.77,East,90,0.0,0.0,76,0.00,CLR,,0.00,WeatherDisplay:10.37,2013-02-19 15:25:00,
2013-02-19 16:30:00,43.9,36.8,29.77,East,90,0.0,0.0,76,0.00,CLR,,0.00,WeatherDisplay:10.37,2013-02-19 15:30:00,
2013-02-19 16:35:00,43.5,36.8,29.77,East,90,0.0,1.0,77,0.00,CLR,,0.00,WeatherDisplay:10.37,2013-02-19 15:35:00,
2013-02-19 16:40:00,43.5,36.8,29.77,East,90,0.0,1.0,77,0.00,CLR,,0.00,WeatherDisplay:10.37,2013-02-19 15:40:00,
2013-02-19 16:45:00,43.5,36.8,29.77,East,90,0.0,1.0,77,0.00,CLR,,0.00,WeatherDisplay:10.37,2013-02-19 15:45:00,
2013-02-19 16:50:00,43.2,36.4,29.77,East,90,0.0,1.0,77,0.00,CLR,,0.00,WeatherDisplay:10.37,2013-02-19 15:50:00,
2013-02-19 16:55:00,43.2,36.4,29.77,East,90,0.0,0.0,77,0.00,CLR,,0.00,WeatherDisplay:10.37,2013-02-19 15:55:00,
2013-02-19 17:00:00,43.2,36.4,29.77,East,90,0.0,0.0,77,0.00,CLR,,0.00,WeatherDisplay:10.37,2013-02-19 16:00:00,
2013-02-19 17:05:00,43.0,36.6,29.77,ENE,77,0.0,0.0,78,0.00,CLR,,0.00,WeatherDisplay:10.37,2013-02-19 16:05:00,
2013-02-19 17:10:00,43.0,36.6,29.77,NE,54,0.0,0.0,78,0.00,CLR,,0.00,WeatherDisplay:10.37,2013-02-19 16:10:00,
2013-02-19 17:15:00,43.0,36.6,29.77,NE,45,0.0,0.0,78,0.00,CLR,,0.00,WeatherDisplay:10.37,2013-02-19 16:15:00,
2013-02-19 17:20:00,42.3,35.9,29.77,NNE,32,0.0,0.0,78,0.00,CLR,,0.00,WeatherDisplay:10.37,2013-02-19 16:20:00,
2013-02-19 17:25:00,42.3,35.9,29.77,North,9,0.0,0.0,78,0.00,CLR,,0.00,WeatherDisplay:10.37,2013-02-19 16:25:00,
2013-02-19 17:30:00,42.3,35.9,29.77,North,0,0.0,0.0,78,0.00,CLR,,0.00,WeatherDisplay:10.37,2013-02-19 16:30:00,
2013-02-19 17:35:00,41.9,35.9,29.78,NNE,13,0.0,0.0,79,0.00,CLR,,0.00,WeatherDisplay:10.37,2013-02-19 16:35:00,
2013-02-19 17:40:00,41.9,35.9,29.78,NE,36,0.0,0.0,79,0.00,CLR,,0.00,WeatherDisplay:10.37,2013-02-19 16:40:00,
2013-02-19 17:45:00,41.9,35.9,29.78,NE,45,0.0,0.0,79,0.00,CLR,,0.00,WeatherDisplay:10.37,2013-02-19 16:45:00,
2013-02-19 17:50:00,41.7,35.7,29.79,NE,45,0.0,1.0,79,0.00,CLR,,0.00,WeatherDisplay:10.37,2013-02-19 16:50:00,
2013-02-19 17:55:00,41.7,35.7,29.79,NE,45,0.0,1.0,79,0.00,CLR,,0.00,WeatherDisplay:10.37,2013-02-19 16:55:00,
2013-02-19 18:00:00,41.7,35.7,29.79,NE,45,0.0,1.0,79,0.00,CLR,,0.00,WeatherDisplay:10.37,2013-02-19 17:00:00,
2013-02-19 18:05:00,41.7,36.0,29.79,ENE,68,0.0,1.0,80,0.00,CLR,,0.00,WeatherDisplay:10.37,2013-02-19 17:05:00,
2013-02-19 18:10:00,41.7,36.0,29.79,ESE,121,0.0,0.0,80,0.00,CLR,,0.00,WeatherDisplay:10.37,2013-02-19 17:10:00,
2013-02-19 18:15:00,41.7,36.0,29.79,SE,135,0.0,0.0,80,0.00,CLR,,0.00,WeatherDisplay:10.37,2013-02-19 17:15:00,
2013-02-19 18:20:00,41.5,35.8,29.79,ESE,122,0.0,0.0,80,0.00,CLR,,0.00,WeatherDisplay:10.37,2013-02-19 17:20:00,
2013-02-19 18:25:00,41.5,35.8,29.79,East,99,0.0,0.0,80,0.00,CLR,,0.00,WeatherDisplay:10.37,2013-02-19 17:25:00,
2013-02-19 18:30:00,41.5,35.8,29.79,East,90,0.0,0.0,80,0.00,CLR,,0.00,WeatherDisplay:10.37,2013-02-19 17:30:00,
2013-02-19 18:35:00,41.7,36.0,29.80,ESE,114,0.0,0.0,80,0.00,CLR,,0.00,WeatherDisplay:10.37,2013-02-19 17:35:00,
2013-02-19 18:40:00,41.7,36.0,29.80,SSW,213,0.0,0.0,80,0.00,CLR,,0.00,WeatherDisplay:10.37,2013-02-19 17:40:00,
2013-02-19 18:45:00,41.7,36.0,29.80,SW,225,0.0,0.0,80,0.00,CLR,,0.00,WeatherDisplay:10.37,2013-02-19 17:45:00,
2013-02-19 18:50:00,41.5,35.8,29.80,SSW,212,0.0,0.0,80,0.00,CLR,,0.00,WeatherDisplay:10.37,2013-02-19 17:50:00,
2013-02-19 18:55:00,41.5,35.8,29.80,South,189,0.0,0.0,80,0.00,CLR,,0.00,WeatherDisplay:10.37,2013-02-19 17:55:00,
2013-02-19 19:00:00,41.5,35.8,29.80,South,180,0.0,0.0,80,0.00,CLR,,0.00,WeatherDisplay:10.37,2013-02-19 18:00:00,
2013-02-19 19:05:00,41.2,35.8,29.80,South,180,0.0,0.0,81,0.00,CLR,,0.00,WeatherDisplay:10.37,2013-02-19 18:05:00,
2013-02-19 19:10:00,41.2,35.8,29.80,South,180,0.0,0.0,81,0.00,CLR,,0.00,WeatherDisplay:10.37,2013-02-19 18:10:00,
2013-02-19 19:15:00,41.2,35.8,29.80,South,180,0.0,0.0,81,0.00,CLR,,0.00,WeatherDisplay:10.37,2013-02-19 18:15:00,
2013-02-19 19:20:00,41.2,35.8,29.80,South,171,1.0,2.0,81,0.00,CLR,,0.00,WeatherDisplay:10.37,2013-02-19 18:20:00,
2013-02-19 19:25:00,41.2,35.8,29.80,SSE,148,1.0,2.0,81,0.00,CLR,,0.00,WeatherDisplay:10.37,2013-02-19 18:25:00,
2013-02-19 19:30:00,41.2,35.8,29.80,SE,135,1.0,2.0,81,0.00,CLR,,0.00,WeatherDisplay:10.37,2013-02-19 18:30:00,
2013-02-19 19:35:00,41.4,36.3,29.79,East,99,0.0,2.0,82,0.00,CLR,,0.00,WeatherDisplay:10.37,2013-02-19 18:35:00,
2013-02-19 19:40:00,41.4,36.3,29.79,NE,53,0.0,1.0,82,0.00,CLR,,0.00,WeatherDisplay:10.37,2013-02-19 18:40:00,
2013-02-19 19:45:00,41.4,36.3,29.79,NE,45,0.0,1.0,82,0.00,CLR,,0.00,WeatherDisplay:10.37,2013-02-19 18:45:00,
2013-02-19 19:50:00,41.0,35.9,29.79,NNE,32,0.0,1.0,82,0.00,CLR,,0.00,WeatherDisplay:10.37,2013-02-19 18:50:00,
2013-02-19 19:55:00,41.0,35.9,29.79,North,9,0.0,0.0,82,0.00,CLR,,0.00,WeatherDisplay:10.37,2013-02-19 18:55:00,
2013-02-19 20:00:00,41.0,35.9,29.79,North,0,0.0,0.0,82,0.00,CLR,,0.00,WeatherDisplay:10.37,2013-02-19 19:00:00,
2013-02-19 20:05:00,40.6,35.6,29.78,NNE,23,0.0,2.0,82,0.00,CLR,,0.00,WeatherDisplay:10.37,2013-02-19 19:05:00,
2013-02-19 20:10:00,40.6,35.6,29.78,ENE,76,0.0,2.0,82,0.00,CLR,,0.00,WeatherDisplay:10.37,2013-02-19 19:10:00,
2013-02-19 20:15:00,40.6,35.6,29.78,East,90,0.0,2.0,82,0.00,CLR,,0.00,WeatherDisplay:10.37,2013-02-19 19:15:00,
2013-02-19 20:20:00,40.3,35.2,29.79,ESE,103,0.0,2.0,82,0.00,CLR,,0.00,WeatherDisplay:10.37,2013-02-19 19:20:00,
2013-02-19 20:25:00,40.3,35.2,29.79,SE,126,0.0,0.0,82,0.00,CLR,,0.00,WeatherDisplay:10.37,2013-02-19 19:25:00,
2013-02-19 20:30:00,40.3,35.2,29.79,SE,135,0.0,0.0,82,0.00,CLR,,0.00,WeatherDisplay:10.37,2013-02-19 19:30:00,
2013-02-19 20:35:00,40.3,35.5,29.79,ESE,122,0.0,0.0,83,0.00,CLR,,0.00,WeatherDisplay:10.37,2013-02-19 19:35:00,
2013-02-19 20:40:00,40.3,35.5,29.79,East,99,0.0,0.0,83,0.00,CLR,,0.00,WeatherDisplay:10.37,2013-02-19 19:40:00,
2013-02-19 20:45:00,40.3,35.5,29.79,East,90,0.0,0.0,83,0.00,CLR,,0.00,WeatherDisplay:10.37,2013-02-19 19:45:00,
2013-02-19 20:50:00,40.5,35.7,29.78,ENE,66,0.0,0.0,83,0.00,CLR,,0.00,WeatherDisplay:10.37,2013-02-19 19:50:00,
2013-02-19 20:55:00,40.5,35.7,29.78,NNW,327,0.0,0.0,83,0.00,CLR,,0.00,WeatherDisplay:10.37,2013-02-19 19:55:00,
2013-02-19 21:00:00,40.5,35.7,29.78,NW,315,0.0,0.0,83,0.00,CLR,,0.00,WeatherDisplay:10.37,2013-02-19 20:00:00,
2013-02-19 21:05:00,40.5,35.7,29.78,NNW,338,0.0,0.0,83,0.00,CLR,,0.00,WeatherDisplay:10.37,2013-02-19 20:05:00,
2013-02-19 21:10:00,40.5,35.7,29.78,NNE,31,0.0,0.0,83,0.00,CLR,,0.00,WeatherDisplay:10.37,2013-02-19 20:10:00,
2013-02-19 21:15:00,40.5,35.7,29.78,NE,45,0.0,0.0,83,0.00,CLR,,0.00,WeatherDisplay:10.37,2013-02-19 20:15:00,
2013-02-19 21:20:00,40.5,35.7,29.78,ENE,69,0.0,1.0,83,0.00,CLR,,0.00,WeatherDisplay:10.37,2013-02-19 20:20:00,
2013-02-19 21:25:00,40.5,35.7,29.78,SSE,168,0.0,1.0,83,0.00,CLR,,0.00,WeatherDisplay:10.37,2013-02-19 20:25:00,
2013-02-19 21:30:00,40.5,35.7,29.78,South,180,0.0,1.0,83,0.00,CLR,,0.00,WeatherDisplay:10.37,2013-02-19 20:30:00,
2013-02-19 21:35:00,40.1,35.4,29.78,SSW,203,0.0,1.0,83,0.00,CLR,,0.00,WeatherDisplay:10.37,2013-02-19 20:35:00,
2013-02-19 21:40:00,40.1,35.4,29.78,WSW,256,0.0,0.0,83,0.00,CLR,,0.00,WeatherDisplay:10.37,2013-02-19 20:40:00,
2013-02-19 21:45:00,40.1,35.4,29.78,West,270,0.0,0.0,83,0.00,CLR,,0.00,WeatherDisplay:10.37,2013-02-19 20:45:00,
2013-02-19 21:50:00,39.9,35.2,29.79,WSW,247,0.0,0.0,83,0.00,CLR,,0.00,WeatherDisplay:10.37,2013-02-19 20:50:00,
2013-02-19 21:55:00,39.9,35.2,29.79,SSW,194,0.0,0.0,83,0.00,CLR,,0.00,WeatherDisplay:10.37,2013-02-19 20:55:00,
2013-02-19 22:00:00,39.9,35.2,29.79,South,180,0.0,0.0,83,0.00,CLR,,0.00,WeatherDisplay:10.37,2013-02-19 21:00:00,
2013-02-19 22:05:00,39.9,35.5,29.78,South,180,0.0,0.0,84,0.00,CLR,,0.00,WeatherDisplay:10.37,2013-02-19 21:05:00,
2013-02-19 22:10:00,39.9,35.5,29.78,South,180,0.0,0.0,84,0.00,CLR,,0.00,WeatherDisplay:10.37,2013-02-19 21:10:00,
2013-02-19 22:15:00,39.9,35.5,29.78,South,180,0.0,0.0,84,0.00,CLR,,0.00,WeatherDisplay:10.37,2013-02-19 21:15:00,
2013-02-19 22:20:00,39.7,35.3,29.78,South,180,0.0,1.0,84,0.00,CLR,,0.00,WeatherDisplay:10.37,2013-02-19 21:20:00,
2013-02-19 22:25:00,39.7,35.3,29.78,South,180,0.0,1.0,84,0.00,CLR,,0.00,WeatherDisplay:10.37,2013-02-19 21:25:00,
2013-02-19 22:30:00,39.7,35.3,29.78,South,180,0.0,1.0,84,0.00,CLR,,0.00,WeatherDisplay:10.37,2013-02-19 21:30:00,
2013-02-19 22:35:00,39.7,35.3,29.78,South,180,0.0,1.0,84,0.00,CLR,,0.00,WeatherDisplay:10.37,2013-02-19 21:35:00,
2013-02-19 22:40:00,39.7,35.3,29.78,South,180,0.0,0.0,84,0.00,CLR,,0.00,WeatherDisplay:10.37,2013-02-19 21:40:00,
2013-02-19 22:45:00,39.7,35.3,29.78,South,180,0.0,0.0,84,0.00,CLR,,0.00,WeatherDisplay:10.37,2013-02-19 21:45:00,
2013-02-19 22:50:00,39.9,35.5,29.78,South,180,0.0,0.0,84,0.00,CLR,,0.00,WeatherDisplay:10.37,2013-02-19 21:50:00,
2013-02-19 22:55:00,39.9,35.5,29.78,South,180,0.0,0.0,84,0.00,CLR,,0.00,WeatherDisplay:10.37,2013-02-19 21:55:00,
2013-02-19 23:00:00,39.9,35.5,29.78,South,180,0.0,0.0,84,0.00,CLR,,0.00,WeatherDisplay:10.37,2013-02-19 22:00:00,
2013-02-19 23:05:00,39.6,35.1,29.78,SSE,167,0.0,0.0,84,0.00,CLR,,0.00,WeatherDisplay:10.37,2013-02-19 22:05:00,
2013-02-19 23:10:00,39.6,35.1,29.78,SE,144,0.0,0.0,84,0.00,CLR,,0.00,WeatherDisplay:10.37,2013-02-19 22:10:00,
2013-02-19 23:15:00,39.6,35.1,29.78,SE,135,0.0,0.0,84,0.00,CLR,,0.00,WeatherDisplay:10.37,2013-02-19 22:15:00,
2013-02-19 23:20:00,39.7,35.3,29.78,ESE,122,0.0,0.0,84,0.00,CLR,,0.00,WeatherDisplay:10.37,2013-02-19 22:20:00,
2013-02-19 23:25:00,39.7,35.3,29.78,East,99,0.0,0.0,84,0.00,CLR,,0.00,WeatherDisplay:10.37,2013-02-19 22:25:00,
2013-02-19 23:30:00,39.7,35.3,29.78,East,90,0.0,0.0,84,0.00,CLR,,0.00,WeatherDisplay:10.37,2013-02-19 22:30:00,
2013-02-19 23:35:00,40.1,36.0,29.78,East,90,0.0,0.0,85,0.00,CLR,,0.00,WeatherDisplay:10.37,2013-02-19 22:35:00,
2013-02-19 23:40:00,40.1,36.0,29.78,East,90,0.0,0.0,85,0.00,CLR,,0.00,WeatherDisplay:10.37,2013-02-19 22:40:00,
2013-02-19 23:45:00,40.1,36.0,29.78,East,90,0.0,0.0,85,0.00,CLR,,0.00,WeatherDisplay:10.37,2013-02-19 22:45:00,
2013-02-19 23:50:00,40.3,36.1,29.79,East,90,0.0,2.0,85,0.00,CLR,,0.00,WeatherDisplay:10.37,2013-02-19 22:50:00,
2013-02-19 23:55:00,40.3,36.1,29.79,East,90,0.0,2.0,85,0.00,CLR,,0.00,WeatherDisplay:10.37,2013-02-19 22:55:00,